Location: Hessdalen
(62.7933°N, 11.1883°E)
Time: 08:54:15
(UTC+01:00)

Cosmos 2218 Rocket - Pass Details

Date: 17 November 2016
Orbit: 956 x 1006 km, 82.9° (Epoch: 27 February)

Event Time Altitude Azimuth Distance (km) Brightness Sun altitude
Rises 18:48:14 0° 343° (NNW) 3,752 7.3 -22.5°
Reaches altitude 10° 18:50:49 10° 346° (NNW) 2,798 6.6 -22.8°
Maximum altitude 18:57:14 66° 69° (ENE) 1,092 4.0 -23.5°
Enters shadow 18:59:43 38° 138° (SE) 1,477 4.6 -23.8°
